Location: Sweet Grass
(48.9965°N, 111.9649°W)
Time: 07:40:04
(UTC+00:00)

DIWATA 2B (PO-101) - Pass Details

Date: 05 April 2023
Orbit: 581 x 594 km, 98.0° (Epoch: 03 June)

Event Time Altitude Azimuth Distance (km) Brightness Sun altitude
Exits shadow 08:43:39 21° 50° (NE) 1,354 ? -32.7°
Drops below altitude 10° 08:46:10 10° 13° (NNE) 1,913 ? -32.6°
Sets 08:48:43 0° 358° (N) 2,819 ? -32.4°
